• In Österreich
  • Länderverzeichnis
  • Für 7 Tage
  • Wassertemperatur
  • Satellitenkarten
  • Wetterkarte
  • News
  • Widgets
  • user-avatar
    Anmelden

    Stündliche Wetter Ischgl

    Heute, 21 Februar, Mittwoch

    Zeit Temperatur Niederschläge Wind Luftdruck Luftfeuchtigkeit
    00:00 -18°C° 0,1 mm 2 m/S 563 mmHg 94%
    01:00 -17°C° 0,1 mm 1 m/S 563 mmHg 94%
    02:00 -17°C° 0 mm 1 m/S 562 mmHg 93%
    03:00 -20°C° 0 mm 2 m/S 562 mmHg 93%
    04:00 -20°C° 0 mm 2 m/S 562 mmHg 92%
    05:00 -20°C° 0 mm 2 m/S 562 mmHg 91%
    06:00 -21°C° 0 mm 2 m/S 561 mmHg 91%
    07:00 -21°C° 0 mm 2 m/S 561 mmHg 90%
    08:00 -19°C° 0 mm 2 m/S 562 mmHg 87%
    09:00 -17°C° 0 mm 2 m/S 564 mmHg 84%
    10:00 -15°C° 0 mm 2 m/S 565 mmHg 82%
    11:00 -14°C° 0 mm 2 m/S 565 mmHg 80%
    12:00 -12°C° 0 mm 2 m/S 565 mmHg 78%
    13:00 -10°C° 0 mm 2 m/S 566 mmHg 75%
    14:00 -10°C° 0 mm 2 m/S 565 mmHg 78%
    15:00 -10°C° 0 mm 2 m/S 565 mmHg 81%
    16:00 -12°C° 0 mm 3 m/S 565 mmHg 83%
    17:00 -13°C° 0,1 mm 2 m/S 565 mmHg 87%
    18:00 -14°C° 0,1 mm 2 m/S 564 mmHg 90%
    19:00 -15°C° 0,1 mm 2 m/S 563 mmHg 94%
    20:00 -16°C° 0 mm 2 m/S 563 mmHg 94%
    21:00 -17°C° 0 mm 2 m/S 563 mmHg 94%
    22:00 -16°C° 0 mm 1 m/S 563 mmHg 93%
    23:00 -16°C° 0 mm 1 m/S 562 mmHg 92%

    Morgen, 22 Februar, Donnerstag

    Zeit Temperatur Niederschläge Wind Luftdruck Luftfeuchtigkeit
    00:00 -17°C° 0 mm 1 m/S 562 mmHg 91%
    01:00 -17°C° 0 mm 1 m/S 561 mmHg 90%
    02:00 -17°C° 0 mm 1 m/S 561 mmHg 88%
    03:00 -17°C° 0 mm 1 m/S 561 mmHg 87%
    04:00 -17°C° 0 mm 1 m/S 560 mmHg 86%
    05:00 -17°C° 0 mm 1 m/S 560 mmHg 85%
    06:00 -17°C° 0 mm 1 m/S 560 mmHg 85%
    07:00 -16°C° 0 mm 1 m/S 560 mmHg 84%
    08:00 -15°C° 0 mm 1 m/S 561 mmHg 83%
    09:00 -13°C° 0 mm 1 m/S 562 mmHg 81%
    10:00 -11°C° 0 mm 1 m/S 563 mmHg 80%
    11:00 -12°C° 0 mm 2 m/S 564 mmHg 79%
    12:00 -10°C° 0 mm 2 m/S 564 mmHg 79%
    13:00 -9°C° 0 mm 2 m/S 564 mmHg 79%
    14:00 -9°C° 0,1 mm 2 m/S 564 mmHg 81%
    15:00 -9°C° 0,1 mm 2 m/S 564 mmHg 83%
    16:00 -9°C° 0,1 mm 2 m/S 564 mmHg 85%
    17:00 -10°C° 0,1 mm 2 m/S 564 mmHg 87%
    18:00 -10°C° 0,1 mm 1 m/S 563 mmHg 90%
    19:00 -12°C° 0,1 mm 1 m/S 563 mmHg 93%
    20:00 -12°C° 0 mm 1 m/S 563 mmHg 92%
    21:00 -13°C° 0 mm 1 m/S 562 mmHg 92%
    22:00 -14°C° 0 mm 1 m/S 562 mmHg 91%
    23:00 -14°C° 0 mm 1 m/S 562 mmHg 89%

    übermorgen, 23 Februar, Freitag

    Zeit Temperatur Niederschläge Wind Luftdruck Luftfeuchtigkeit
    00:00 -14°C° 0 mm 1 m/S 562 mmHg 88%
    01:00 -14°C° 0 mm 1 m/S 562 mmHg 86%
    02:00 -14°C° 0 mm 1 m/S 562 mmHg 84%
    03:00 -14°C° 0 mm 1 m/S 561 mmHg 83%
    04:00 -14°C° 0 mm 1 m/S 561 mmHg 82%
    05:00 -14°C° 0 mm 1 m/S 561 mmHg 81%
    06:00 -14°C° 0 mm 1 m/S 561 mmHg 80%
    07:00 -14°C° 0 mm 1 m/S 561 mmHg 80%
    08:00 -12°C° 0 mm 1 m/S 562 mmHg 78%
    09:00 -11°C° 0 mm 1 m/S 563 mmHg 76%
    10:00 -9°C° 0 mm 1 m/S 564 mmHg 75%
    11:00 -8°C° 0,1 mm 1 m/S 565 mmHg 76%
    12:00 -7°C° 0,1 mm 1 m/S 565 mmHg 77%
    13:00 -6°C° 0,1 mm 1 m/S 566 mmHg 79%
    14:00 -6°C° 0,1 mm 1 m/S 566 mmHg 81%
    15:00 -6°C° 0,1 mm 1 m/S 566 mmHg 83%
    16:00 -6°C° 0,1 mm 1 m/S 566 mmHg 85%
    17:00 -7°C° 0 mm 1 m/S 565 mmHg 87%
    18:00 -9°C° 0 mm 1 m/S 565 mmHg 89%
    19:00 -10°C° 0 mm 1 m/S 564 mmHg 92%
    20:00 -10°C° 0 mm 1 m/S 564 mmHg 89%
    21:00 -12°C° 0 mm 2 m/S 565 mmHg 86%
    22:00 -12°C° 0 mm 2 m/S 565 mmHg 83%
    23:00 -12°C° 0,1 mm 2 m/S 565 mmHg 81%

    24 Februar, Samstag

    Zeit Temperatur Niederschläge Wind Luftdruck Luftfeuchtigkeit
    00:00 -12°C° 0,1 mm 2 m/S 565 mmHg 80%
    01:00 -12°C° 0,1 mm 2 m/S 565 mmHg 78%
    02:00 -12°C° 0 mm 2 m/S 565 mmHg 78%
    03:00 -12°C° 0 mm 2 m/S 565 mmHg 78%
    04:00 -12°C° 0 mm 2 m/S 565 mmHg 77%
    05:00 -12°C° 0 mm 2 m/S 565 mmHg 78%
    06:00 -10°C° 0 mm 2 m/S 565 mmHg 78%
    07:00 -9°C° 0 mm 1 m/S 565 mmHg 78%
    08:00 -8°C° 0 mm 1 m/S 566 mmHg 79%
    09:00 -6°C° 0 mm 1 m/S 567 mmHg 80%
    10:00 -3°C° 0 mm 1 m/S 568 mmHg 80%
    11:00 -3°C° 0 mm 1 m/S 568 mmHg 83%
    12:00 -2°C° 0 mm 1 m/S 568 mmHg 86%
    13:00 -2°C° 0 mm 1 m/S 569 mmHg 89%
    14:00 -2°C° 0 mm 1 m/S 568 mmHg 90%
    15:00 -2°C° 0 mm 1 m/S 568 mmHg 91%
    16:00 -2°C° 0 mm 1 m/S 568 mmHg 92%
    17:00 -3°C° 0,1 mm 1 m/S 568 mmHg 93%
    18:00 -4°C° 0,1 mm 1 m/S 568 mmHg 94%
    19:00 -6°C° 0,1 mm 1 m/S 567 mmHg 95%
    20:00 -7°C° 0,1 mm 1 m/S 567 mmHg 95%
    21:00 -7°C° 0,1 mm 1 m/S 567 mmHg 95%
    22:00 -8°C° 0,1 mm 1 m/S 567 mmHg 95%
    23:00 -8°C° 0,1 mm 1 m/S 567 mmHg 95%

    25 Februar, Sonntag

    Zeit Temperatur Niederschläge Wind Luftdruck Luftfeuchtigkeit
    00:00 -9°C° 0,1 mm 1 m/S 567 mmHg 95%
    01:00 -9°C° 0,1 mm 1 m/S 567 mmHg 95%
    02:00 -9°C° 0,1 mm 1 m/S 567 mmHg 95%
    03:00 -10°C° 0,1 mm 1 m/S 566 mmHg 95%
    04:00 -12°C° 0,1 mm 2 m/S 566 mmHg 95%
    05:00 -13°C° 0,1 mm 2 m/S 566 mmHg 95%
    06:00 -13°C° 0,1 mm 2 m/S 566 mmHg 94%
    07:00 -14°C° 0,1 mm 2 m/S 566 mmHg 94%
    08:00 -13°C° 0,1 mm 2 m/S 566 mmHg 92%
    09:00 -14°C° 0,1 mm 3 m/S 566 mmHg 90%
    10:00 -13°C° 0,1 mm 3 m/S 567 mmHg 88%
    11:00 -13°C° 0,1 mm 3 m/S 567 mmHg 86%
    12:00 -13°C° 0,1 mm 3 m/S 567 mmHg 84%
    13:00 -14°C° 0,1 mm 3 m/S 567 mmHg 82%
    14:00 -14°C° 0,1 mm 3 m/S 567 mmHg 82%
    15:00 -15°C° 0,1 mm 3 m/S 566 mmHg 83%
    16:00 -16°C° 0,1 mm 3 m/S 566 mmHg 83%
    17:00 -18°C° 0 mm 3 m/S 565 mmHg 86%
    18:00 -21°C° 0 mm 3 m/S 565 mmHg 88%
    19:00 -21°C° 0 mm 2 m/S 564 mmHg 91%
    20:00 -23°C° 0 mm 2 m/S 564 mmHg 91%
    21:00 -24°C° 0 mm 2 m/S 564 mmHg 90%
    22:00 -25°C° 0 mm 2 m/S 563 mmHg 90%
    23:00 -23°C° 0 mm 1 m/S 563 mmHg 88%

    26 Februar, Montag

    Zeit Temperatur Niederschläge Wind Luftdruck Luftfeuchtigkeit
    00:00 -24°C° 0 mm 1 m/S 562 mmHg 86%
    01:00 -24°C° 0 mm 1 m/S 562 mmHg 84%
    02:00 -25°C° 0 mm 1 m/S 562 mmHg 81%
    03:00 -25°C° 0 mm 1 m/S 561 mmHg 79%
    04:00 -25°C° 0 mm 1 m/S 561 mmHg 76%
    05:00 -27°C° 0 mm 1 m/S 561 mmHg 75%
    06:00 -27°C° 0 mm 1 m/S 561 mmHg 73%
    07:00 -27°C° 0 mm 1 m/S 561 mmHg 72%
    08:00 -27°C° 0 mm 2 m/S 562 mmHg 69%
    09:00 -25°C° 0 mm 2 m/S 563 mmHg 67%
    10:00 -21°C° 0 mm 2 m/S 564 mmHg 64%
    11:00 -21°C° 0 mm 2 m/S 564 mmHg 63%
    12:00 -22°C° 0 mm 3 m/S 565 mmHg 62%
    13:00 -21°C° 0 mm 3 m/S 565 mmHg 61%
    14:00 -21°C° 0 mm 3 m/S 564 mmHg 64%
    15:00 -21°C° 0 mm 3 m/S 564 mmHg 68%
    16:00 -22°C° 0 mm 3 m/S 564 mmHg 71%
    17:00 -23°C° 0 mm 3 m/S 563 mmHg 77%
    18:00 -24°C° 0 mm 2 m/S 562 mmHg 83%
    19:00 -26°C° 0 mm 2 m/S 561 mmHg 89%
    20:00 -27°C° 0 mm 2 m/S 561 mmHg 89%
    21:00 -25°C° 0 mm 1 m/S 560 mmHg 89%
    22:00 -25°C° 0 mm 1 m/S 560 mmHg 89%
    23:00 -27°C° 0 mm 1 m/S 560 mmHg 87%
    Mehr zeigen